Location: Unspecified
(0.0000°N, 0.0000°E)
Time: 15:46:59
(UTC+00:00)

DX 1 - Visible Passes

Search period start: 19 October 2020 00:00
Search period end: 29 October 2020 00:00
Orbit: 618 x 631 km, 98.5° (Epoch: 19 October)

Date Brightness Start Highest point End Pass type
(mag) Time Alt. Az. Time Alt. Az. Time Alt. Az.
19 Oct ? 18:18:22 10° N 18:22:29 43° WNW 18:26:37 10° SSW visible
20 Oct ? 04:55:48 10° E 04:56:04 10° ENE 04:56:20 10° ENE visible
20 Oct ? 18:37:41 10° NNW 18:41:10 24° WNW 18:44:41 10° SW visible
21 Oct ? 05:11:42 10° ESE 05:14:44 19° ENE 05:17:47 10° NNE visible
21 Oct ? 18:57:46 10° NW 18:59:52 13° WNW 19:01:57 10° WSW visible
24 Oct ? 18:15:52 10° N 18:20:03 50° WNW 18:24:16 10° SSW visible
25 Oct ? 18:35:04 10° NNW 18:38:44 27° WNW 18:42:26 10° SW visible
26 Oct ? 05:09:33 10° ESE 05:12:18 17° ENE 05:15:03 10° NE visible
26 Oct ? 18:54:55 10° NW 18:57:26 15° WNW 18:59:57 10° WSW visible
